Showing default

LEMUR-2 SONNENBLUME, 67367

Orbit data source: Space-Track

LEMUR-2 SONNENBLUME, 67367 is a payload satellite owned by Spire/Lux (US) in SSO that was launched on Sun, 11 Jan 2026 UTC via an FALCON 9 launch vehicle from the Air Force Western Test Range (AFWTR). Payload-class satellites include a variety of spacecraft equipped with specific instruments for various scientific and technological missions. These include communications satellites like Starlink; space stations such as the ISS; scientific satellites like the Hubble; Earth observation satellites from companies like Planet Labs, Umbra, and HawkEye 360; GPS; miniature CubeSats for education and research; and military/defense satellites.

Loading next visibility...
Identifier
67367, 2026-004E
Orbit
SSO
Country
Flag of USUS
Related business
Manufacturer
Spire/Glasgow
Mission
Operational spacecraft
Bus & Motor
CUBESAT 3U, Unknown motor
Mass
4.6 kg wet, 4.6 kg dry
Launch date (UTC)
2026-01-11 (3 months ago)
Launch vehicle
FALCON 9
Launch site
Air Force Western Test Range (AFWTR)
Object type
Payload
Rocket body
Debris
Shape & HBR
Unknown shape, 0.2 m
Radar Cross Section
RCS unknown

Expand to show TLE details & history
Last TLE update: 6 hours ago

TLE from 6 hours ago
0 LEMUR-2 SONNENBLUME
1 67367U 26004E   26095.56431902  .00005488  00000-0  60403-3 0  9994
2 67367  97.7991  95.2731 0008885  32.6815 327.4949 14.87945527 12490
Epoch: 2026-04-05T13:32Z
TLE epoch observation values (Epoch: 2026-04-05T13:32:37.163Z)
Latitude
-0.00009°
Longitude
58.25033°
Altitude
602.159 km
Speed
7.561 km/s
True Right ascension
06h 21m 05s
True Declination
0° 00' 00"
Sunlit
Object was in daylight at epoch
Visualization orbit readout
Latitude
Unknown
Longitude
Unknown
Altitude
Unknown
Speed
Unknown
Apparent Right ascension
Unknown
Apparent Declination
Unknown
Sunlit
N/A
Visualization observer readout
Local Sidereal Time
00:59:56
Azimuth
Unknown
Elevation
Unknown
Doppler factor
Unknown
Orbital elements
Apogee altitude
607.583 km
Perigee altitude
595.18 km
Semi-major axis
6,979.518 km
Eccentricity
0.00089
Inclination
97.7991°
RAAN
95.2731°
Arg. of periapsis
32.6815°
True anomaly
327.44014°
Mean anomaly
327.4949°
Eccentric anomaly
327.46752°
Mean motion
3.72225 °/min
Orbital period
96.72 mins
BSTAR
0.00060403
Loading maneuver chart data...
Computing Atmospheric mass density...
Loading historical data...
Loading historical data...
Loading historical data...
Loading historical data...
Loading historical data...
Loading historical data...
Loading historical data...

Documentation

Showing up to 5 results
|